Station Historical Data
Daily Summary for February 3, 2018 Units:  English    Metric   Both
« Previous Day
Next Day »
Daily Weekly Monthly Yearly Custom
  High: Low: Average:
Temperature: TemperatureF °F 14.1 °F 20.8 °F
Dew Point: DewpointF °F 6.3 °F 12 °F
Humidity: Humidity% 45% 68%
Wind Speed: WindSpeedMPHmph 1.0mph 6.6mph
Wind Gust: WindSpeedGustMPHmph - -
Wind- - SW
Pressure: PressureIn in 29.94 in -
Precipitation: 0.00 in    
Historical Graphs
 
 
Tabular Data for February 3, 2018
Time Temperature Dew Point Pressure Wind Wind Speed Wind Gust Humidity Rainfall Rate (Hourly)
TemperatureF °F DewpointF °F PressureIn in Calm     Humidity% HourlyPrecipIn in
00:04 14.6 °F 10.1 °F 30.33 in WSW 5.0 mph 13.0 mph 82% 0.00 in
00:09 14.5 °F 10.0 °F 30.32 in SW 6.0 mph 13.0 mph 82% 0.00 in
00:14 14.4 °F 9.9 °F 30.33 in WSW 3.0 mph 8.0 mph 82% 0.00 in
00:19 14.3 °F 9.8 °F 30.32 in West 7.0 mph 9.0 mph 82% 0.00 in
00:24 14.2 °F 9.7 °F 30.32 in SW 4.0 mph 9.0 mph 82% 0.00 in
00:29 14.1 °F 9.6 °F 30.32 in WSW 4.0 mph 9.0 mph 82% 0.00 in
00:34 14.2 °F 9.2 °F 30.32 in West 4.0 mph 8.0 mph 80% 0.00 in
00:39 14.2 °F 8.6 °F 30.32 in WSW 6.0 mph 10.0 mph 78% 0.00 in
00:44 14.3 °F 8.1 °F 30.32 in WSW 3.0 mph 7.0 mph 76% 0.00 in
00:49 14.6 °F 7.8 °F 30.32 in West 4.0 mph 9.0 mph 74% 0.00 in
00:54 14.8 °F 7.4 °F 30.32 in West 4.0 mph 11.0 mph 72% 0.00 in
00:59 14.9 °F 7.2 °F 30.31 in West 5.0 mph 11.0 mph 71% 0.00 in
01:04 15.1 °F 7.1 °F 30.31 in West 5.0 mph 11.0 mph 70% 0.00 in
01:09 15.1 °F 6.8 °F 30.31 in West 5.0 mph 11.0 mph 69% 0.00 in
01:14 15.2 °F 6.5 °F 30.31 in West 5.0 mph 10.0 mph 68% 0.00 in
01:19 15.2 °F 6.5 °F 30.31 in West 4.0 mph 9.0 mph 68% 0.00 in
01:24 15.3 °F 6.6 °F 30.31 in WNW 5.0 mph 12.0 mph 68% 0.00 in
01:29 15.3 °F 6.3 °F 30.31 in SW 9.0 mph 12.0 mph 67% 0.00 in
01:34 15.4 °F 6.4 °F 30.31 in West 8.0 mph 12.0 mph 67% 0.00 in
01:39 15.4 °F 6.4 °F 30.31 in WSW 4.0 mph 9.0 mph 67% 0.00 in
01:44 15.5 °F 6.5 °F 30.31 in WNW 6.0 mph 12.0 mph 67% 0.00 in
01:49 15.5 °F 6.5 °F 30.31 in WSW 5.0 mph 12.0 mph 67% 0.00 in
01:54 15.6 °F 6.6 °F 30.31 in WNW 4.0 mph 9.0 mph 67% 0.00 in
01:59 15.6 °F 6.6 °F 30.31 in West 5.0 mph 14.0 mph 67% 0.00 in
02:04 15.6 °F 6.6 °F 30.31 in West 6.0 mph 14.0 mph 67% 0.00 in
02:09 15.7 °F 6.7 °F 30.31 in West 6.0 mph 15.0 mph 67% 0.00 in
02:14 15.7 °F 6.7 °F 30.31 in West 6.0 mph 15.0 mph 67% 0.00 in
02:19 15.7 °F 6.7 °F 30.31 in West 4.0 mph 11.0 mph 67% 0.00 in
02:24 15.7 °F 6.7 °F 30.31 in WNW 3.0 mph 12.0 mph 67% 0.00 in
02:29 15.7 °F 6.7 °F 30.31 in WNW 5.0 mph 13.0 mph 67% 0.00 in
02:34 15.7 °F 6.7 °F 30.31 in West 5.0 mph 13.0 mph 67% 0.00 in
02:39 15.7 °F 6.7 °F 30.31 in West 5.0 mph 11.0 mph 67% 0.00 in
02:44 15.7 °F 7.0 °F 30.31 in West 5.0 mph 10.0 mph 68% 0.00 in
02:49 15.6 °F 6.9 °F 30.32 in West 5.0 mph 11.0 mph 68% 0.00 in
02:54 15.7 °F 7.0 °F 30.31 in WSW 5.0 mph 10.0 mph 68% 0.00 in
02:59 15.6 °F 6.9 °F 30.31 in West 4.0 mph 13.0 mph 68% 0.00 in
03:04 15.5 °F 6.8 °F 30.31 in West 6.0 mph 13.0 mph 68% 0.00 in
03:09 15.5 °F 6.8 °F 30.32 in West 6.0 mph 12.0 mph 68% 0.00 in
03:14 15.4 °F 6.7 °F 30.31 in SW 7.0 mph 14.0 mph 68% 0.00 in
03:19 15.5 °F 6.8 °F 30.31 in WSW 8.0 mph 10.0 mph 68% 0.00 in
03:24 15.4 °F 7.0 °F 30.31 in SW 6.0 mph 9.0 mph 69% 0.00 in
03:29 15.4 °F 7.0 °F 30.31 in WSW 4.0 mph 13.0 mph 69% 0.00 in
03:34 15.3 °F 6.9 °F 30.31 in WSW 7.0 mph 13.0 mph 69% 0.00 in
03:39 15.3 °F 6.9 °F 30.31 in West 7.0 mph 15.0 mph 69% 0.00 in
03:44 15.3 °F 6.9 °F 30.31 in West 7.0 mph 15.0 mph 69% 0.00 in
03:54 15.2 °F 7.2 °F 30.31 in SW 4.0 mph 13.0 mph 70% 0.00 in
03:59 15.1 °F 7.1 °F 30.31 in WSW 7.0 mph 18.0 mph 70% 0.00 in
04:04 15.0 °F 7.0 °F 30.31 in West 5.0 mph 15.0 mph 70% 0.00 in
04:09 14.9 °F 6.9 °F 30.30 in WSW 7.0 mph 15.0 mph 70% 0.00 in
04:14 14.9 °F 6.9 °F 30.31 in WSW 7.0 mph 14.0 mph 70% 0.00 in
04:19 14.9 °F 6.9 °F 30.30 in West 8.0 mph 10.0 mph 70% 0.00 in
04:29 14.8 °F 6.8 °F 30.31 in WSW 11.0 mph 13.0 mph 70% 0.00 in
04:34 14.8 °F 6.8 °F 30.31 in West 5.0 mph 15.0 mph 70% 0.00 in
04:39 14.8 °F 6.8 °F 30.31 in West 12.0 mph 12.0 mph 70% 0.00 in
04:44 14.8 °F 6.8 °F 30.31 in West 7.0 mph 14.0 mph 70% 0.00 in
04:49 14.7 °F 6.7 °F 30.31 in West 5.0 mph 13.0 mph 70% 0.00 in
04:54 14.7 °F 6.7 °F 30.31 in WSW 4.0 mph 9.0 mph 70% 0.00 in
04:59 14.6 °F 6.6 °F 30.31 in West 5.0 mph 8.0 mph 70% 0.00 in
05:04 14.6 °F 6.6 °F 30.31 in SW 7.0 mph 8.0 mph 70% 0.00 in
05:09 14.5 °F 6.8 °F 30.31 in WSW 4.0 mph 8.0 mph 71% 0.00 in
05:14 14.4 °F 6.7 °F 30.31 in West 5.0 mph 12.0 mph 71% 0.00 in
05:19 14.4 °F 6.7 °F 30.31 in West 6.0 mph 12.0 mph 71% 0.00 in
05:24 14.4 °F 6.7 °F 30.31 in West 5.0 mph 10.0 mph 71% 0.00 in
05:29 14.4 °F 6.7 °F 30.31 in West 5.0 mph 10.0 mph 71% 0.00 in
05:34 14.4 °F 6.7 °F 30.31 in West 5.0 mph 12.0 mph 71% 0.00 in
05:39 14.4 °F 6.7 °F 30.31 in SW 6.0 mph 10.0 mph 71% 0.00 in
05:44 14.4 °F 6.7 °F 30.31 in WSW 5.0 mph 10.0 mph 71% 0.00 in
05:49 14.4 °F 7.0 °F 30.30 in WSW 6.0 mph 13.0 mph 72% 0.00 in
05:54 14.3 °F 6.9 °F 30.31 in West 7.0 mph 13.0 mph 72% 0.00 in
05:59 14.2 °F 6.8 °F 30.31 in WSW 3.0 mph 10.0 mph 72% 0.00 in
06:04 14.2 °F 7.1 °F 30.31 in WSW 3.0 mph 10.0 mph 73% 0.00 in
06:09 14.2 °F 7.1 °F 30.31 in West 3.0 mph 8.0 mph 73% 0.00 in
06:14 14.3 °F 7.5 °F 30.32 in WSW 4.0 mph 8.0 mph 74% 0.00 in
06:19 14.4 °F 7.9 °F 30.31 in WSW 5.0 mph 10.0 mph 75% 0.00 in
06:24 14.3 °F 8.1 °F 30.31 in WSW 5.0 mph 10.0 mph 76% 0.00 in
06:29 14.3 °F 8.4 °F 30.31 in WSW 3.0 mph 10.0 mph 77% 0.00 in
06:34 14.4 °F 8.8 °F 30.31 in WSW 5.0 mph 10.0 mph 78% 0.00 in
06:39 14.5 °F 9.2 °F 30.31 in WSW 1.0 mph 8.0 mph 79% 0.00 in
06:44 14.6 °F 9.3 °F 30.31 in West 6.0 mph 9.0 mph 79% 0.00 in
06:49 14.7 °F 9.6 °F 30.32 in WSW 5.0 mph 11.0 mph 80% 0.00 in
06:54 15.0 °F 9.9 °F 30.32 in WSW 5.0 mph 11.0 mph 80% 0.00 in
06:59 15.1 °F 10.3 °F 30.32 in WSW 6.0 mph 15.0 mph 81% 0.00 in
07:04 15.3 °F 10.5 °F 30.32 in WSW 5.0 mph 14.0 mph 81% 0.00 in
07:09 15.4 °F 10.6 °F 30.31 in WSW 9.0 mph 13.0 mph 81% 0.00 in
07:14 15.5 °F 11.0 °F 30.31 in SW 6.0 mph 14.0 mph 82% 0.00 in
07:19 15.5 °F 11.0 °F 30.31 in WSW 7.0 mph 14.0 mph 82% 0.00 in
07:24 15.4 °F 10.9 °F 30.31 in WSW 7.0 mph 14.0 mph 82% 0.00 in
07:29 15.4 °F 10.9 °F 30.31 in West 6.0 mph 15.0 mph 82% 0.00 in
07:34 15.2 °F 10.7 °F 30.32 in West 7.0 mph 13.0 mph 82% 0.00 in
07:39 15.2 °F 10.7 °F 30.31 in SW 4.0 mph 13.0 mph 82% 0.00 in
07:44 15.2 °F 11.0 °F 30.31 in WSW 5.0 mph 16.0 mph 83% 0.00 in
07:49 15.3 °F 11.1 °F 30.31 in SW 8.0 mph 13.0 mph 83% 0.00 in
07:54 15.4 °F 11.2 °F 30.31 in WSW 8.0 mph 15.0 mph 83% 0.00 in
07:59 15.6 °F 11.4 °F 30.32 in WSW 8.0 mph 15.0 mph 83% 0.00 in
08:04 15.7 °F 11.5 °F 30.32 in WSW 7.0 mph 14.0 mph 83% 0.00 in
08:09 15.8 °F 11.6 °F 30.32 in WSW 7.0 mph 14.0 mph 83% 0.00 in
08:14 15.9 °F 11.7 °F 30.32 in WSW 7.0 mph 13.0 mph 83% 0.00 in
08:19 15.9 °F 11.7 °F 30.32 in WSW 8.0 mph 14.0 mph 83% 0.00 in
08:24 15.9 °F 11.9 °F 30.32 in SW 8.0 mph 14.0 mph 84% 0.00 in
08:29 16.1 °F 12.1 °F 30.32 in SW 5.0 mph 12.0 mph 84% 0.00 in
08:34 16.1 °F 11.8 °F 30.32 in WSW 11.0 mph 15.0 mph 83% 0.00 in
08:39 16.1 °F 11.8 °F 30.32 in WSW 8.0 mph 13.0 mph 83% 0.00 in
08:44 16.0 °F 11.7 °F 30.32 in SW 8.0 mph 14.0 mph 83% 0.00 in
08:49 16.1 °F 11.6 °F 30.32 in SW 7.0 mph 12.0 mph 82% 0.00 in
08:54 16.3 °F 11.8 °F 30.32 in SW 9.0 mph 14.0 mph 82% 0.00 in
08:59 16.5 °F 11.7 °F 30.32 in SW 7.0 mph 14.0 mph 81% 0.00 in
09:04 16.4 °F 11.0 °F 30.32 in SW 8.0 mph 16.0 mph 79% 0.00 in
09:09 17.0 °F 11.3 °F 30.32 in SW 8.0 mph 16.0 mph 78% 0.00 in
09:14 17.0 °F 11.0 °F 30.32 in SW 8.0 mph 16.0 mph 77% 0.00 in
09:19 17.2 °F 11.2 °F 30.32 in South 5.0 mph 14.0 mph 77% 0.00 in
09:24 17.9 °F 11.3 °F 30.32 in West 7.0 mph 13.0 mph 75% 0.00 in
09:29 18.4 °F 11.5 °F 30.32 in SW 7.0 mph 19.0 mph 74% 0.00 in
09:34 18.3 °F 10.8 °F 30.32 in WSW 8.0 mph 19.0 mph 72% 0.00 in
09:39 18.1 °F 10.3 °F 30.32 in SW 7.0 mph 18.0 mph 71% 0.00 in
09:44 18.1 °F 10.0 °F 30.31 in West 8.0 mph 21.0 mph 70% 0.00 in
09:49 18.6 °F 10.4 °F 30.32 in WSW 14.0 mph 20.0 mph 70% 0.00 in
09:54 19.0 °F 10.5 °F 30.31 in SW 17.0 mph 19.0 mph 69% 0.00 in
09:59 19.1 °F 10.6 °F 30.31 in South 14.0 mph 21.0 mph 69% 0.00 in
10:04 19.0 °F 10.2 °F 30.31 in SW 11.0 mph 21.0 mph 68% 0.00 in
10:09 18.9 °F 10.1 °F 30.31 in SW 11.0 mph 24.0 mph 68% 0.00 in
10:14 19.0 °F 9.8 °F 30.30 in SW 10.0 mph 24.0 mph 67% 0.00 in
10:19 18.6 °F 9.8 °F 30.30 in SW 11.0 mph 26.0 mph 68% 0.00 in
10:24 18.8 °F 10.0 °F 30.31 in SW 11.0 mph 26.0 mph 68% 0.00 in
10:29 18.6 °F 9.8 °F 30.31 in WSW 12.0 mph 22.0 mph 68% 0.00 in
10:34 18.5 °F 9.7 °F 30.30 in West 14.0 mph 20.0 mph 68% 0.00 in
10:39 18.6 °F 9.8 °F 30.30 in South 7.0 mph 16.0 mph 68% 0.00 in
10:44 18.5 °F 9.7 °F 30.30 in WSW 10.0 mph 18.0 mph 68% 0.00 in
10:49 18.3 °F 9.5 °F 30.30 in West 6.0 mph 17.0 mph 68% 0.00 in
10:54 18.4 °F 9.6 °F 30.30 in SSW 7.0 mph 20.0 mph 68% 0.00 in
10:59 18.5 °F 9.7 °F 30.31 in SW 9.0 mph 21.0 mph 68% 0.00 in
11:04 19.6 °F 10.4 °F 30.30 in WSW 5.0 mph 20.0 mph 67% 0.00 in
11:09 20.1 °F 10.6 °F 30.30 in SW 10.0 mph 20.0 mph 66% 0.00 in
11:14 20.2 °F 10.6 °F 30.30 in SW 11.0 mph 23.0 mph 66% 0.00 in
11:19 20.6 °F 11.0 °F 30.29 in SW 10.0 mph 23.0 mph 66% 0.00 in
11:24 20.4 °F 10.1 °F 30.29 in SW 9.0 mph 18.0 mph 64% 0.00 in
11:29 20.2 °F 10.3 °F 30.29 in WSW 8.0 mph 16.0 mph 65% 0.00 in
11:34 20.2 °F 10.6 °F 30.29 in West 5.0 mph 16.0 mph 66% 0.00 in
11:39 20.3 °F 10.4 °F 30.28 in SW 8.0 mph 20.0 mph 65% 0.00 in
11:44 20.6 °F 10.7 °F 30.28 in SW 9.0 mph 20.0 mph 65% 0.00 in
11:49 20.7 °F 10.8 °F 30.28 in SW 8.0 mph 16.0 mph 65% 0.00 in
11:54 21.1 °F 11.2 °F 30.28 in SW 6.0 mph 11.0 mph 65% 0.00 in
11:59 20.9 °F 10.6 °F 30.27 in West 8.0 mph 21.0 mph 64% 0.00 in
12:04 20.9 °F 11.0 °F 30.27 in WSW 8.0 mph 21.0 mph 65% 0.00 in
12:09 21.2 °F 10.9 °F 30.27 in SW 10.0 mph 21.0 mph 64% 0.00 in
12:14 21.7 °F 11.0 °F 30.27 in SW 11.0 mph 21.0 mph 63% 0.00 in
12:19 22.2 °F 11.9 °F 30.26 in SW 10.0 mph 20.0 mph 64% 0.00 in
12:24 22.2 °F 11.5 °F 30.26 in SW 10.0 mph 20.0 mph 63% 0.00 in
12:29 22.1 °F 11.4 °F 30.25 in West 9.0 mph 21.0 mph 63% 0.00 in
12:34 21.9 °F 11.2 °F 30.26 in SW 14.0 mph 22.0 mph 63% 0.00 in
12:39 21.5 °F 11.2 °F 30.25 in SW 13.0 mph 21.0 mph 64% 0.00 in
12:44 21.5 °F 11.5 °F 30.25 in SW 10.0 mph 21.0 mph 65% 0.00 in
12:49 21.7 °F 11.7 °F 30.25 in South 14.0 mph 16.0 mph 65% 0.00 in
12:54 21.6 °F 11.3 °F 30.25 in SW 9.0 mph 18.0 mph 64% 0.00 in
12:59 21.6 °F 11.3 °F 30.24 in SW 9.0 mph 18.0 mph 64% 0.00 in
13:04 21.5 °F 11.2 °F 30.24 in West 6.0 mph 20.0 mph 64% 0.00 in
13:09 21.4 °F 11.1 °F 30.24 in WSW 9.0 mph 17.0 mph 64% 0.00 in
13:14 21.8 °F 11.5 °F 30.24 in SW 10.0 mph 17.0 mph 64% 0.00 in
13:19 22.0 °F 11.7 °F 30.24 in SW 10.0 mph 16.0 mph 64% 0.00 in
13:24 22.7 °F 12.7 °F 30.24 in SW 9.0 mph 18.0 mph 65% 0.00 in
13:29 22.5 °F 11.4 °F 30.24 in SW 7.0 mph 17.0 mph 62% 0.00 in
13:34 22.4 °F 11.7 °F 30.23 in WSW 10.0 mph 17.0 mph 63% 0.00 in
13:39 22.2 °F 11.5 °F 30.23 in WNW 8.0 mph 17.0 mph 63% 0.00 in
13:44 22.2 °F 11.9 °F 30.23 in West 9.0 mph 18.0 mph 64% 0.00 in
13:49 22.2 °F 11.9 °F 30.23 in WSW 9.0 mph 18.0 mph 64% 0.00 in
13:54 22.3 °F 11.6 °F 30.22 in WSW 8.0 mph 16.0 mph 63% 0.00 in
13:59 22.4 °F 11.7 °F 30.22 in WSW 7.0 mph 15.0 mph 63% 0.00 in
14:04 22.6 °F 11.9 °F 30.22 in SSW 5.0 mph 13.0 mph 63% 0.00 in
14:09 23.2 °F 12.8 °F 30.22 in West 10.0 mph 14.0 mph 64% 0.00 in
14:14 23.4 °F 12.6 °F 30.22 in WSW 5.0 mph 14.0 mph 63% 0.00 in
14:19 23.3 °F 12.6 °F 30.21 in SW 6.0 mph 16.0 mph 63% 0.00 in
14:24 23.1 °F 12.4 °F 30.21 in WSW 7.0 mph 16.0 mph 63% 0.00 in
14:29 23.0 °F 12.3 °F 30.21 in WSW 8.0 mph 16.0 mph 63% 0.00 in
14:34 23.1 °F 12.4 °F 30.21 in WSW 8.0 mph 16.0 mph 63% 0.00 in
14:39 23.3 °F 12.9 °F 30.21 in SW 7.0 mph 11.0 mph 64% 0.00 in
14:44 23.3 °F 12.6 °F 30.20 in SW 8.0 mph 15.0 mph 63% 0.00 in
14:49 23.1 °F 12.4 °F 30.20 in SW 7.0 mph 16.0 mph 63% 0.00 in
14:54 23.0 °F 12.6 °F 30.20 in South 11.0 mph 16.0 mph 64% 0.00 in
14:59 22.9 °F 12.9 °F 30.20 in SW 7.0 mph 16.0 mph 65% 0.00 in
15:04 22.8 °F 12.8 °F 30.19 in SW 6.0 mph 17.0 mph 65% 0.00 in
15:09 22.7 °F 12.7 °F 30.19 in WSW 7.0 mph 14.0 mph 65% 0.00 in
15:14 22.7 °F 13.0 °F 30.19 in SSW 8.0 mph 16.0 mph 66% 0.00 in
15:19 22.9 °F 13.2 °F 30.19 in SW 8.0 mph 16.0 mph 66% 0.00 in
15:24 22.9 °F 13.6 °F 30.19 in WSW 7.0 mph 15.0 mph 67% 0.00 in
15:29 23.0 °F 13.7 °F 30.19 in WSW 7.0 mph 12.0 mph 67% 0.00 in
15:34 23.0 °F 13.7 °F 30.19 in SW 10.0 mph 11.0 mph 67% 0.00 in
15:44 23.0 °F 14.0 °F 30.19 in WSW 7.0 mph 12.0 mph 68% 0.00 in
15:49 23.0 °F 14.0 °F 30.18 in SW 6.0 mph 12.0 mph 68% 0.00 in
15:54 23.2 °F 14.5 °F 30.18 in SW 5.0 mph 10.0 mph 69% 0.00 in
15:59 23.3 °F 14.6 °F 30.18 in SW 1.0 mph 9.0 mph 69% 0.00 in
16:04 23.4 °F 14.7 °F 30.18 in WSW 6.0 mph 14.0 mph 69% 0.00 in
16:09 23.3 °F 14.6 °F 30.17 in SW 9.0 mph 12.0 mph 69% 0.00 in
16:19 23.4 °F 14.7 °F 30.16 in SSW 4.0 mph 9.0 mph 69% 0.00 in
16:24 23.5 °F 14.8 °F 30.17 in SSW 5.0 mph 9.0 mph 69% 0.00 in
16:29 23.7 °F 15.0 °F 30.16 in SSW 4.0 mph 8.0 mph 69% 0.00 in
16:34 23.8 °F 15.1 °F 30.16 in SW 3.0 mph 8.0 mph 69% 0.00 in
16:39 23.8 °F 15.1 °F 30.15 in SSW 3.0 mph 8.0 mph 69% 0.00 in
16:44 23.8 °F 15.1 °F 30.15 in SW 6.0 mph 10.0 mph 69% 0.00 in
16:49 23.9 °F 15.2 °F 30.14 in SSW 3.0 mph 6.0 mph 69% 0.00 in
16:54 24.0 °F 15.3 °F 30.14 in SSW 3.0 mph 6.0 mph 69% 0.00 in
16:59 24.1 °F 15.4 °F 30.14 in SSW 3.0 mph 6.0 mph 69% 0.00 in
17:04 24.2 °F 15.5 °F 30.14 in SSW 2.0 mph 7.0 mph 69% 0.00 in
17:09 24.3 °F 15.3 °F 30.13 in SSW 6.0 mph 8.0 mph 68% 0.00 in
17:14 24.3 °F 15.3 °F 30.13 in SSW 7.0 mph 8.0 mph 68% 0.00 in
17:19 24.4 °F 15.3 °F 30.13 in South 4.0 mph 7.0 mph 68% 0.00 in
17:24 24.5 °F 15.4 °F 30.12 in South 4.0 mph 7.0 mph 68% 0.00 in
17:29 24.7 °F 15.3 °F 30.12 in SSW 3.0 mph 8.0 mph 67% 0.00 in
17:34 24.9 °F 15.5 °F 30.12 in SSW 6.0 mph 8.0 mph 67% 0.00 in
17:39 25.1 °F 15.7 °F 30.12 in SW 4.0 mph 9.0 mph 67% 0.00 in
17:44 25.4 °F 15.6 °F 30.12 in SSW 7.0 mph 11.0 mph 66% 0.00 in
17:49 25.6 °F 15.8 °F 30.12 in SSE 4.0 mph 8.0 mph 66% 0.00 in
17:54 25.6 °F 15.8 °F 30.12 in South 3.0 mph 9.0 mph 66% 0.00 in
17:59 25.6 °F 15.8 °F 30.12 in South 6.0 mph 15.0 mph 66% 0.00 in
18:04 25.5 °F 16.1 °F 30.12 in South 6.0 mph 15.0 mph 67% 0.00 in
18:09 25.5 °F 16.1 °F 30.12 in SSE 6.0 mph 12.0 mph 67% 0.00 in
18:14 25.4 °F 16.0 °F 30.11 in SSW 5.0 mph 13.0 mph 67% 0.00 in
18:19 25.5 °F 16.1 °F 30.11 in South 5.0 mph 12.0 mph 67% 0.00 in
18:24 25.5 °F 16.1 °F 30.11 in South 4.0 mph 9.0 mph 67% 0.00 in
18:29 25.5 °F 16.1 °F 30.11 in SSW 5.0 mph 10.0 mph 67% 0.00 in
18:34 25.5 °F 16.1 °F 30.11 in South 5.0 mph 11.0 mph 67% 0.00 in
18:39 25.5 °F 16.1 °F 30.11 in SSW 5.0 mph 11.0 mph 67% 0.00 in
18:44 25.6 °F 16.2 °F 30.10 in SSW 5.0 mph 11.0 mph 67% 0.00 in
18:49 25.6 °F 16.2 °F 30.10 in SSW 3.0 mph 12.0 mph 67% 0.00 in
18:54 25.6 °F 16.2 °F 30.10 in South 7.0 mph 10.0 mph 67% 0.00 in
18:59 25.6 °F 16.2 °F 30.10 in South 6.0 mph 10.0 mph 67% 0.00 in
19:04 25.7 °F 16.3 °F 30.10 in South 5.0 mph 10.0 mph 67% 0.00 in
19:09 25.7 °F 16.3 °F 30.09 in South 5.0 mph 10.0 mph 67% 0.00 in
19:14 25.9 °F 16.1 °F 30.09 in SSW 3.0 mph 11.0 mph 66% 0.00 in
19:19 26.1 °F 16.3 °F 30.09 in South 7.0 mph 11.0 mph 66% 0.00 in
19:24 26.2 °F 16.4 °F 30.09 in SSE 11.0 mph 15.0 mph 66% 0.00 in
19:29 26.4 °F 16.6 °F 30.09 in WSW 7.0 mph 15.0 mph 66% 0.00 in
19:34 26.5 °F 16.7 °F 30.08 in SSW 7.0 mph 15.0 mph 66% 0.00 in
19:39 26.7 °F 16.9 °F 30.08 in SSW 6.0 mph 12.0 mph 66% 0.00 in
19:44 26.8 °F 17.0 °F 30.08 in SSW 6.0 mph 17.0 mph 66% 0.00 in
19:49 26.8 °F 17.6 °F 30.08 in SSW 6.0 mph 17.0 mph 68% 0.00 in
19:54 26.8 °F 18.0 °F 30.07 in SSE 8.0 mph 16.0 mph 69% 0.00 in
19:59 26.7 °F 18.2 °F 30.07 in South 8.0 mph 14.0 mph 70% 0.00 in
20:04 26.7 °F 18.6 °F 30.07 in SSW 7.0 mph 15.0 mph 71% 0.00 in
20:09 26.7 °F 18.6 °F 30.06 in SSW 7.0 mph 16.0 mph 71% 0.00 in
20:14 26.7 °F 18.9 °F 30.06 in SSW 6.0 mph 16.0 mph 72% 0.00 in
20:19 26.7 °F 19.2 °F 30.06 in South 9.0 mph 16.0 mph 73% 0.00 in
20:24 26.7 °F 19.8 °F 30.06 in South 4.0 mph 16.0 mph 75% 0.00 in
20:29 26.7 °F 19.8 °F 30.05 in South 5.0 mph 16.0 mph 75% 0.00 in
20:34 26.9 °F 20.3 °F 30.05 in SSW 6.0 mph 18.0 mph 76% 0.00 in
20:39 26.9 °F 20.3 °F 30.05 in SSW 8.0 mph 18.0 mph 76% 0.00 in
20:44 27.1 °F 20.5 °F 30.05 in SSW 8.0 mph 18.0 mph 76% 0.00 in
20:49 27.2 °F 20.6 °F 30.05 in SSW 9.0 mph 20.0 mph 76% 0.00 in
20:54 27.3 °F 20.4 °F 30.05 in SW 6.0 mph 16.0 mph 75% 0.00 in
20:59 27.4 °F 20.2 °F 30.04 in SSW 7.0 mph 13.0 mph 74% 0.00 in
21:04 27.6 °F 20.1 °F 30.04 in SSW 7.0 mph 13.0 mph 73% 0.00 in
21:09 27.7 °F 19.8 °F 30.04 in South 4.0 mph 14.0 mph 72% 0.00 in
21:14 27.8 °F 19.3 °F 30.04 in SSW 4.0 mph 12.0 mph 70% 0.00 in
21:19 28.0 °F 18.8 °F 30.04 in SSW 7.0 mph 19.0 mph 68% 0.00 in
21:24 28.2 °F 18.6 °F 30.04 in SSW 7.0 mph 16.0 mph 67% 0.00 in
21:29 28.4 °F 18.1 °F 30.04 in SW 7.0 mph 17.0 mph 65% 0.00 in
21:34 28.7 °F 18.1 °F 30.04 in SSW 5.0 mph 13.0 mph 64% 0.00 in
21:39 28.7 °F 17.7 °F 30.04 in South 5.0 mph 16.0 mph 63% 0.00 in
21:44 29.0 °F 18.0 °F 30.04 in SSW 7.0 mph 16.0 mph 63% 0.00 in
21:49 29.0 °F 17.6 °F 30.03 in SSW 7.0 mph 16.0 mph 62% 0.00 in
21:54 29.1 °F 18.1 °F 30.03 in SSW 7.0 mph 16.0 mph 63% 0.00 in
21:59 29.3 °F 18.3 °F 30.03 in SSW 7.0 mph 16.0 mph 63% 0.00 in
22:04 29.4 °F 18.0 °F 30.03 in SSW 7.0 mph 15.0 mph 62% 0.00 in
22:09 29.6 °F 17.8 °F 30.02 in SSW 7.0 mph 15.0 mph 61% 0.00 in
22:14 29.7 °F 17.5 °F 30.02 in South 8.0 mph 13.0 mph 60% 0.00 in
22:19 29.8 °F 17.6 °F 30.02 in SSW 7.0 mph 13.0 mph 60% 0.00 in
22:24 29.9 °F 17.3 °F 30.01 in SSE 5.0 mph 16.0 mph 59% 0.00 in
22:29 30.1 °F 17.1 °F 30.00 in South 6.0 mph 12.0 mph 58% 0.00 in
22:34 30.1 °F 17.1 °F 29.99 in South 5.0 mph 17.0 mph 58% 0.00 in
22:39 30.1 °F 16.7 °F 29.99 in SSW 6.0 mph 15.0 mph 57% 0.00 in
22:44 30.2 °F 16.8 °F 29.99 in SW 7.0 mph 11.0 mph 57% 0.00 in
22:49 30.4 °F 17.0 °F 29.99 in South 6.0 mph 11.0 mph 57% 0.00 in
22:54 30.5 °F 17.1 °F 29.98 in SSW 6.0 mph 12.0 mph 57% 0.00 in
22:59 30.8 °F 16.9 °F 29.99 in SSW 7.0 mph 18.0 mph 56% 0.00 in
23:04 31.0 °F 16.3 °F 29.98 in SSW 7.0 mph 18.0 mph 54% 0.00 in
23:09 31.3 °F 16.1 °F 29.98 in SSW 8.0 mph 16.0 mph 53% 0.00 in
23:14 31.6 °F 15.5 °F 29.97 in SSW 8.0 mph 19.0 mph 51% 0.00 in
23:19 31.8 °F 15.3 °F 29.97 in SSW 8.0 mph 19.0 mph 50% 0.00 in
23:24 32.1 °F 15.5 °F 29.97 in SSW 7.0 mph 18.0 mph 50% 0.00 in
23:29 32.3 °F 14.8 °F 29.97 in SW 11.0 mph 19.0 mph 48% 0.00 in
23:34 32.4 °F 14.9 °F 29.96 in SSW 5.0 mph 17.0 mph 48% 0.00 in
23:39 32.7 °F 14.2 °F 29.96 in WSW 9.0 mph 18.0 mph 46% 0.00 in
23:44 32.8 °F 14.3 °F 29.96 in South 5.0 mph 13.0 mph 46% 0.00 in
23:49 32.9 °F 13.9 °F 29.95 in SSW 6.0 mph 14.0 mph 45% 0.00 in
23:54 33.0 °F 13.9 °F 29.95 in SSW 7.0 mph 16.0 mph 45% 0.00 in
23:59 33.2 °F 14.1 °F 29.94 in SSW 7.0 mph 16.0 mph 45% 0.00 in
Buffalo, New York, USA
Compliments of Weather Underground - 2.5 mb